Вернуться в каталог

ATLAS 5 CENTAUR DEB

АктивенHEO
NORAD 44009·DEBRIS·🇺🇸 United States

Запущен Sep 17, 2014 с Cape Canaveral Space Force Station

Loading…

Ближайшие Пролёты (ближайшие 24 часа)

TLE

СвежийSource: Space-Track

Эпоха: Sep 9, 2026, 05:13 UTC

1 44009U 14055BQ  26252.21766967 -.00000163  00000-0  00000-0 0  9994
2 44009  20.9421  98.8166 4985825 248.7607  52.2548  1.91632824 55563

Отслеживайте ATLAS 5 CENTAUR DEB в реальном времени с AllMySat

Download on the App Store